This demonstration page uses our WeatherBlox Daily Observations layout. Learn more.

Left ArrowRight Arrow

Hourly Observations for June 6, 2017

Temp ( °F °C ) Dew Point ( °F °C ) Humidity (%) Winds ( mph kmh ) Pressure ( in mb ) Visibility ( mi km ) Precip ( " mm )
12:15 am 00:15 Partly Cloudy 73 22.8 56 13.6 56 56 W 3 6 29.85 1011 10 16.0934 0 0
12:35 am 00:35 Mostly Cloudy 73 22.5 56 13.5 57 57 W 5 7 29.88 1012 10 16.0934 0 0
12:55 am 00:55 Partly Cloudy 72 22 56 13.6 59 59 W 5 7 29.88 1012 10 16.0934 0 0
1:15 am 01:15 Clear 71 21.5 57 14 62 62 W 6 9 29.88 1012 10 16.0934 0 0
1:35 am 01:35 Clear 71 21.8 56 13.5 59 59 W 6 9 29.88 1012 10 16.0934 0 0
1:55 am 01:55 Partly Cloudy 70 21.3 56 13.5 61 61 WSW 6 9 29.88 1012 10 16.0934 0 0
2:15 am 02:15 Partly Cloudy 71 21.6 56 13.2 59 59 W 7 11 29.88 1012 10 16.0934 0 0
2:35 am 02:35 Partly Cloudy 71 21.5 56 13.2 59 59 WNW 3 6 29.88 1012 10 16.0934 0 0
2:55 am 02:55 Clear 69 20.4 56 13.5 65 65 Calm 29.88 1012 10 16.0934 0 0
3:15 am 03:15 Clear 69 20.4 56 13.5 65 65 Calm 29.88 1012 10 16.0934 0 0
3:35 am 03:35 Clear 69 20.4 56 13.5 65 65 ESE 3 6 29.88 1012 10 16.0934 0 0
3:55 am 03:55 Clear 67 19.3 56 13.6 70 70 E 10 17 29.88 1012 10 16.0934 0 0
4:15 am 04:15 Clear 67 19.5 56 13.5 68 68 E 6 9 29.91 1013 10 16.0934 0 0
4:35 am 04:35 Clear 68 20.2 56 13.3 65 65 Calm 29.91 1013 10 16.0934 0 0
4:55 am 04:55 Clear 68 20 57 13.8 68 68 SE 5 7 29.91 1013 10 16.0934 0 0
5:15 am 05:15 Clear 67 19.7 57 14 70 70 SE 3 6 29.91 1013 10 16.0934 0 0
5:35 am 05:35 Partly Cloudy 67 19.3 57 14.1 72 72 Calm 29.94 1014 10 16.0934 0 0
5:55 am 05:55 Partly Cloudy 68 19.8 57 14 69 69 Calm 29.91 1013 10 16.0934 0 0
6:15 am 06:15 Mostly Cloudy 68 20.1 57 13.9 68 68 SSW 3 6 29.91 1013 10 16.0934 0 0
6:35 am 06:35 Cloudy 69 20.4 57 13.8 66 66 SSW 5 7 29.91 1013 7 11.26538 0 0
6:55 am 06:55 Cloudy 69 20.8 57 13.9 65 65 S 5 7 29.94 1014 10 16.0934 0 0
7:15 am 07:15 Cloudy 69 20.7 57 13.8 65 65 SSW 5 7 29.94 1014 10 16.0934 0 0
7:35 am 07:35 Cloudy 69 20.3 59 14.8 71 71 WSW 3 6 29.94 1014 10 16.0934 0 0
7:55 am 07:55 Cloudy 70 21.2 56 13.4 61 61 NNE 14 22 29.94 1014 10 16.0934 0 0
8:15 am 08:15 Mostly Cloudy 68 20 55 12.9 64 64 NE 16 26 30 1016 10 16.0934 0 0
8:35 am 08:35 Mostly Cloudy with Nearby Thunderstorms 68 19.8 55 13 65 65 NE 10 17 30 1016 10 16.0934 0 0
8:55 am 08:55 Cloudy 68 20 56 13.2 65 65 NE 13 20 30 1016 10 16.0934 0 0
9:15 am 09:15 Mostly Cloudy with Nearby Thunderstorms 68 20.1 56 13.6 66 66 NE 16 26 29.97 1015 10 16.0934 0 0
9:35 am 09:35 Mostly Cloudy with Nearby Thunderstorms 69 20.5 57 14.1 67 67 ENE 12 19 29.97 1015 10 16.0934 0 0
9:55 am 09:55 Partly Cloudy 68 20.2 58 14.7 71 71 E 15 24 29.97 1015 10 16.0934 0 0
10:15 am 10:15 Sunny 69 20.8 59 15.1 70 70 E 16 26 29.97 1015 10 16.0934 0 0
10:35 am 10:35 Sunny 71 21.7 59 14.8 65 65 E 20 31 29.97 1015 10 16.0934 0 0
10:55 am 10:55 Sunny 72 22.2 58 14.7 63 63 E 21 33 29.97 1015 10 16.0934 0 0
11:15 am 11:15 Sunny 73 22.8 57 13.9 57 57 E 20 31 29.97 1015 10 16.0934 0 0
11:35 am 11:35 Sunny 75 23.8 58 14.5 56 56 ESE 20 31 29.94 1014 10 16.0934 0 0
11:55 am 11:55 Sunny 75 23.9 57 14.1 54 54 E 15 24 29.94 1014 10 16.0934 0 0
12:15 pm 12:15 Sunny 75 23.7 56 13.5 53 53 ESE 16 26 29.94 1014 10 16.0934 0 0
12:35 pm 12:35 Sunny 75 23.8 57 13.9 54 54 ESE 10 17 29.94 1014 10 16.0934 0 0
12:55 pm 12:55 Mostly Cloudy with Light Rain 74 23.6 59 15.1 59 59 ESE 8 13 29.97 1015 10 16.0934 0 0
1:15 pm 13:15 Mostly Cloudy with Light Rain 75 23.9 58 14.6 56 56 ESE 7 11 29.94 1014 10 16.0934 0 0
1:35 pm 13:35 Cloudy with Light Rain 75 24.1 58 14.4 55 55 ESE 6 9 29.94 1014 10 16.0934 0 0
1:55 pm 13:55 Cloudy with Drizzle 76 24.2 58 14.3 54 54 SE 9 15 29.94 1014 10 16.0934 0 0
2:15 pm 14:15 Cloudy with Light Rain 75 24 58 14.5 55 55 SSE 9 15 29.94 1014 10 16.0934 0 0
2:35 pm 14:35 Cloudy 74 23.5 58 14.7 58 58 Calm 29.97 1015 10 16.0934 0 0
2:55 pm 14:55 Cloudy with Light Rain 73 23 61 15.9 64 64 Calm 29.97 1015 10 16.0934 0 0
3:15 pm 15:15 Cloudy 74 23.3 62 16.5 66 66 SE 5 7 29.97 1015 10 16.0934 0 0
3:35 pm 15:35 Mostly Cloudy 75 23.9 61 16.2 62 62 SE 6 9 29.94 1014 10 16.0934 0 0
3:55 pm 15:55 Partly Cloudy 75 24 61 15.9 61 61 ESE 6 9 29.94 1014 10 16.0934 0 0
4:15 pm 16:15 Partly Cloudy 76 24.2 60 15.6 59 59 E 5 7 29.94 1014 10 16.0934 0 0
4:35 pm 16:35 Partly Cloudy 75 24.1 59 15.2 58 58 E 6 9 29.94 1014 10 16.0934 0 0
4:55 pm 16:55 Sunny 75 24.1 60 15.8 60 60 E 6 9 29.94 1014 10 16.0934 0 0
5:15 pm 17:15 Sunny 75 24 58 14.7 56 56 NE 5 7 29.94 1014 10 16.0934 0 0
5:35 pm 17:35 Sunny 75 23.7 59 14.9 58 58 E 6 9 29.94 1014 10 16.0934 0 0
5:55 pm 17:55 Sunny 75 23.7 60 15.6 61 61 E 6 9 29.94 1014 10 16.0934 0 0
6:15 pm 18:15 Sunny 74 23.5 60 15.4 61 61 ENE 6 9 29.97 1015 10 16.0934 0 0
6:35 pm 18:35 Sunny 74 23.6 60 15.6 61 61 ENE 7 11 29.91 1013 10 16.0934 0 0
6:55 pm 18:55 Sunny 74 23.5 60 15.5 61 61 NE 10 17 29.91 1013 10 16.0934 0 0
7:15 pm 19:15 Sunny 74 23.3 61 16.3 65 65 ENE 10 17 29.94 1014 10 16.0934 0 0
7:35 pm 19:35 Sunny 73 23 61 16.2 66 66 ENE 8 13 29.94 1014 10 16.0934 0 0
7:55 pm 19:55 Sunny 73 22.9 62 16.4 67 67 E 5 7 29.97 1015 10 16.0934 0 0
8:15 pm 20:15 Sunny 73 22.5 61 16.2 68 68 Calm 29.97 1015 10 16.0934 0 0
8:35 pm 20:35 Sunny 72 22.1 62 16.5 71 71 SE 6 9 29.97 1015 10 16.0934 0 0
8:55 pm 20:55 Sunny 71 21.7 62 16.4 72 72 SE 3 6 29.97 1015 10 16.0934 0 0
9:15 pm 21:15 Clear 70 20.9 61 16.2 75 75 SE 3 6 29.97 1015 10 16.0934 0 0
9:35 pm 21:35 Clear 69 20.8 61 16.3 76 76 Calm 29.97 1015 10 16.0934 0 0
9:55 pm 21:55 Clear 68 20.2 61 16.1 77 77 Calm 29.97 1015 10 16.0934 0 0
10:15 pm 22:15 Clear 69 20.3 61 16 76 76 Calm 29.97 1015 10 16.0934 0 0
10:35 pm 22:35 Partly Cloudy 67 19.7 61 15.9 79 79 Calm 30.03 1017 10 16.0934 0 0
10:55 pm 22:55 Partly Cloudy 66 18.9 61 16.1 84 84 Calm 30.03 1017 10 16.0934 0 0
11:15 pm 23:15 Clear 65 18.6 61 16.2 86 86 Calm 30.06 1018 10 16.0934 0 0
11:35 pm 23:35 Partly Cloudy 65 18.5 61 16.2 87 87 Calm 30.06 1018 10 16.0934 0 0
11:55 pm 23:55 Cloudy 65 18.6 62 16.4 87 87 Calm 30.06 1018 10 16.0934 0 0

Powered by AerisWeather